Meteo Giornale » Osservazioni meteo Gran Bretagna » East Midlands
ore: 19:50 - Osservazioni Meteo East Midlands
Lat. 52° 50' N Lon. 1° 20' W Alt. 94 metri s.l.m.
19 °C
Poco Nuvoloso
Temp. 24 Ore
11 °C
22 °C
Sud-Ovest
14.8 Km/h
Dew point 12 °C
Umidità 63 %
Visibilità 10 Km
Il sole sorge alle ore 06:15
Il sole tramonta alle ore 19:54
| Data e Ora | Cielo e Fenomeni | T °C | DP °C | Um. % | Pres. hPa | Vis. km | Vento km/h | |
|---|---|---|---|---|---|---|---|---|
| Oggi h: 19:50 | Poco Nuvoloso | 19 | 12 | 63 | 1018 | 10 | SO 14.8 | |
| Oggi h: 19:20 | Poco Nuvoloso | 19 | 11 | 59 | 1018 | 10 | SO 14.8 | |
| Oggi h: 18:50 | Poco Nuvoloso | 19 | 11 | 59 | 1018 | 10 | SO 16.7 | |
| Oggi h: 18:20 | Poco Nuvoloso | 20 | 11 | 56 | 1018 | 10 | SO 18.5 | |
| Oggi h: 17:50 | Poco Nuvoloso | 21 | 11 | 52 | 1018 | 10 | O/SO 25.9 | |
| Oggi h: 17:20 | Poco Nuvoloso | 21 | 10 | 49 | 1018 | 10 | O/SO 24 | |
| Oggi h: 16:50 | Poco Nuvoloso | 21 | 10 | 49 | 1018 | 10 | O/SO 24 | |
| Oggi h: 16:20 | Poco Nuvoloso | 20 | 10 | 52 | 1018 | 10 | O 25.9 | |
| Oggi h: 15:50 | Poco Nuvoloso | 21 | 10 | 49 | 1018 | 10 | O/SO 24 | |
| Oggi h: 15:20 | Nuvoloso | 20 | 11 | 56 | 1018 | 10 | O/SO 24 | |
| Oggi h: 14:50 | Nuvoloso | 20 | 10 | 52 | 1018 | 10 | O/SO 29.6 | |
| Oggi h: 14:20 | Nuvoloso | 22 | 10 | 46 | 1018 | 10 | O/SO 22.2 | |
| Oggi h: 13:50 | Molto Nuvoloso | 21 | 9 | 46 | 1018 | 10 | O/SO 24 | |
| Oggi h: 13:20 | Nuvoloso | 20 | 9 | 49 | 1019 | 10 | O/SO 25.9 | |
| Oggi h: 12:50 | Molto Nuvoloso | 21 | 10 | 49 | 1019 | 10 | O/SO 24 | |
| Oggi h: 12:20 | Nuvoloso | 20 | 9 | 49 | 1018 | 10 | SO 20.3 | |
| Oggi h: 11:50 | Nuvoloso | 19 | 9 | 52 | 1019 | 10 | O/SO 22.2 | |
| Oggi h: 11:20 | Nuvoloso | 19 | 10 | 55 | 1019 | 10 | O/SO 24 | |
| Oggi h: 10:50 | Poco Nuvoloso | 18 | 11 | 63 | 1019 | 10 | O/SO 22.2 | |
| Oggi h: 09:50 | Sereno | 17 | 11 | 67 | 1019 | 10 | SO 16.7 | |
| Oggi h: 09:20 | Sereno | 16 | 11 | 72 | 1019 | 10 | O/SO 16.7 | |
| Oggi h: 08:50 | Sereno | 15 | 11 | 76 | 1019 | 10 | O/SO 16.7 | |
| Oggi h: 08:20 | Sereno | 14 | 11 | 82 | 1019 | 10 | SO 13 | |
| Oggi h: 07:50 | Sereno | 13 | 11 | 87 | 1019 | 10 | SO 14.8 | |
| Oggi h: 07:20 | Sereno | 12 | 10 | 87 | 1019 | 10 | SO 14.8 | |
| Oggi h: 06:50 | Sereno | 11 | 10 | 93 | 1019 | 10 | SO 13 | |
| Oggi h: 06:20 | Sereno | 11 | 10 | 93 | 1018 | 10 | SO 11.1 | |
| Oggi h: 05:50 | Sereno | 12 | 10 | 87 | 1018 | 10 | SO 14.8 | |
| Oggi h: 05:20 | Sereno | 11 | 10 | 93 | 1018 | 10 | SO 14.8 | |
| Oggi h: 04:50 | Sereno | 12 | 10 | 87 | 1018 | 10 | SO 13 | |
| Oggi h: 04:20 | Sereno | 12 | 10 | 87 | 1018 | 10 | SO 13 | |
| Oggi h: 03:50 | Sereno | 12 | 10 | 87 | 1018 | 10 | O/SO 14.8 | |
| Oggi h: 02:50 | Sereno | 13 | 10 | 81 | 1018 | 10 | O/SO 16.7 | |
| Oggi h: 02:20 | Sereno | 13 | 10 | 81 | 1018 | 10 | SO 14.8 | |
| Oggi h: 01:50 | Sereno | 14 | 10 | 76 | 1018 | 10 | O/SO 14.8 | |
| Oggi h: 01:20 | Sereno | 14 | 10 | 76 | 1018 | 10 | O 16.7 | |
| Oggi h: 00:50 | Sereno | 14 | 10 | 76 | 1018 | 10 | O/SO 18.5 | |
| Oggi h: 00:20 | Sereno | 14 | 11 | 82 | 1018 | 10 | O/SO 14.8 | |
| Ieri h: 23:50 | Sereno | 14 | 11 | 82 | 1018 | 10 | O/SO 16.7 | |
| Ieri h: 23:20 | Sereno | 14 | 11 | 82 | 1018 | 10 | O/SO 18.5 | |
| Ieri h: 22:50 | Sereno | 14 | 11 | 82 | 1017 | 10 | O 16.7 | |
| Ieri h: 22:20 | Sereno | 14 | 11 | 82 | 1017 | 10 | O/SO 16.7 | |
| Ieri h: 21:50 | Sereno | 14 | 10 | 76 | 1017 | 10 | O 14.8 | |
| Ieri h: 21:20 | Sereno | 14 | 11 | 82 | 1017 | 10 | O 16.7 | |
| Ieri h: 20:50 | Sereno | 15 | 11 | 76 | 1017 | 10 | O 18.5 | |



